Regional Weather Roundup
Issued by NWS Nashville, TN

Home | Current Version | Previous Version | Text Only | Print | Product List | Glossary On
Versions: 1 2 3 4 5 6 7 8 9 10 11 12 13 14 15 16 17 18 19 20 21 22 23 24 25 26 27 28 29 30 31 32 33 34 35 36 37 38 39 40 41 42 43 44 45 46 47 48 49 50
000
ASUS44 KOHX 311310
RWROHX
MIDDLE TENNESSEE HOURLY WEATHER ROUNDUP
NATIONAL WEATHER SERVICE NASHVILLE TN
800 AM CDT MON AUG 31 2015

NOTE: "FAIR" INDICATES FEW OR NO CLOUDS BELOW 12,000 FEET WITH
NO SIGNIFICANT WEATHER AND/OR OBSTRUCTIONS TO VISIBILITY.

* THESE REPORTS ARE NOT UNDER NWS QUALITY CONTROL AND MAY NOT
  REPORT WEATHER SUCH AS PRECIPITATION AND FOG.


TNZ005>011-023>034-057-059-062>066-078-080-311400
...NORTHERN MIDDLE TENNESSEE...

CITY           SKY/WX    TMP DP  RH WIND       PRES   REMARKS
CLARKSVILLE    SUNNY     67  65  93 CALM      30.14R
CROSSVILLE     SUNNY     69  63  81 CALM      30.20R
DICKSON        SUNNY     70  64  83 CALM      30.14R
LIVINGSTON     SUNNY     73  64  73 CALM      30.18
NASHVILLE      MOSUNNY   71  64  78 NE3       30.15R
SMYRNA         MOSUNNY   67  66  96 CALM      30.15S
$$
TNZ056-058-060-061-075>077-079-093>097-311400
...SOUTHERN MIDDLE TENNESSEE...

CITY           SKY/WX    TMP DP  RH WIND       PRES   REMARKS
COLUMBIA       SUNNY     66  66 100 CALM      30.12S
LEWISBURG      CLOUDY    64  64 100 MISG      30.14R
MCMINNVILLE    PTSUNNY   64  64 100 CALM      30.16R
SHELBYVILLE    MOSUNNY   68  68 100 E5        30.16R
TULLAHOMA      SUNNY     68  64  88 CALM      30.16R
WINCHESTER     MOSUNNY   68  66  94 CALM      30.15R
$$


...KEY TO REMARKS...
VSB - VISIBILITY IN MILES
WCI - WIND CHILL INDEX
HX  - HEAT INDEX



USA.gov is the U.S. government's official web portal to all federal, state and local government web resources and services.